Location: Chittendens Corners
(41.2320°N, 81.4940°W)
Time: 08:53:24
(UTC+00:00)

Meteor 2-10 Rocket - Pass Details

Date: 29 October 2020
Orbit: 733 x 885 km, 81.2° (Epoch: 27 November)

Event Time Altitude Azimuth Distance (km) Brightness Sun altitude
Rises 22:50:18 0° 157° (SSE) 3,305 6.7 -5.5°
Reaches altitude 10° 22:53:02 10° 145° (SE) 2,353 5.8 -6.0°
Maximum altitude 22:57:22 26° 90° (E) 1,479 4.4 -6.8°
Drops below altitude 10° 23:01:36 10° 35° (NE) 2,293 5.5 -7.6°
Sets 23:04:13 0° 23° (NNE) 3,205 6.4 -8.1°
